GW3840 Weather Reports


time (UTC)temp
F
wind
direction
speed
knots
gust
knots
rain 1hr
in
rain 24hr
in
rain mn
in
humidity
%
barometer
mb
20240723063918 67 114 0.9 0.9 0.00 0.00 0.00 91 1016.2
20240723063418 67 114 0.9 0.9 0.00 0.00 0.00 92 1016.3
20240723062916 67 129 0.0 0.0 0.00 0.00 0.00 93 1016.2
20240723062413 67 130 0.0 0.9 0.00 0.00 0.00 92 1016.0
20240723061911 68 138 0.0 0.0 0.00 0.00 0.00 91 1016.2
20240723061409 67 127 0.0 0.9 0.00 0.00 0.00 91 1016.4
20240723060907 67 120 0.0 0.9 0.00 0.00 0.00 92 1016.5
20240723060406 67 122 0.0 0.9 0.00 0.00 0.00 92 1016.5
20240723055906 67 117 0.0 0.0 0.00 0.00 0.00 92 1016.6
20240723055404 67 127 0.0 0.0 0.00 0.00 0.00 93 1016.8
20240723054903 67 136 0.0 0.0 0.00 0.00 0.00 92 1016.7
20240723054400 68 122 0.0 0.0 0.00 0.00 0.00 92 1016.7
20240723053858 68 115 0.0 0.9 0.00 0.00 0.00 91 1016.8
20240723053356 68 112 0.0 0.9 0.00 0.00 0.00 92 1016.5
20240723052854 68 98 0.9 0.9 0.00 0.00 0.00 93 1016.8
20240723052353 68 128 0.0 0.0 0.00 0.00 0.00 92 1016.8
20240723051852 68 137 0.0 0.0 0.00 0.00 0.00 91 1016.7
20240723051331 68 124 0.0 0.0 0.00 0.00 0.00 90 1016.6
20240723050828 69 106 0.0 0.0 0.00 0.00 0.00 89 1016.8
20240723050326 69 136 0.0 0.9 0.00 0.00 0.00 88 1016.6
20240723045825 69 138 0.0 0.0 0.00 0.00 0.00 87 1017.0
20240723045323 70 136 0.9 1.7 0.00 0.00 0.00 86 1016.9
20240723044821 69 119 0.9 1.7 0.00 0.00 0.00 87 1016.9
20240723044320 70 130 0.0 0.9 0.00 0.00 0.00 87 1017.2
20240723043820 70 116 0.0 0.9 0.00 0.00 0.00 87 1016.8
20240723043319 70 130 0.0 0.9 0.00 0.00 0.00 87 1016.7
20240723042818 70 122 1.7 1.7 0.00 0.00 0.00 87 1016.8
20240723042316 70 115 0.9 1.7 0.00 0.00 0.00 87 1017.0
20240723041813 70 113 0.0 0.0 0.00 0.00 0.00 88 1016.6
20240723041311 70 138 0.0 0.9 0.00 0.00 0.00 88 1016.5
20240723040808 69 139 0.0 0.0 0.00 0.00 0.00 88 1016.6
20240723040306 69 121 0.0 0.0 0.00 0.00 0.00 90 1016.5
20240723035805 69 155 0.0 0.0 0.00 0.00 0.00 91 1016.6
20240723035306 69 138 0.0 0.0 0.00 0.00 0.00 91 1016.7
20240723034803 69 131 0.0 0.0 0.00 0.00 0.00 90 1016.8
20240723034301 69 121 0.0 0.0 0.00 0.00 0.00 89 1016.7
20240723033759 70 128 0.0 0.0 0.00 0.00 0.00 88 1016.7
20240723033259 70 127 0.0 0.0 0.00 0.00 0.00 87 1016.8
20240723032756 71 124 0.0 0.0 0.00 0.00 0.00 86 1016.6
20240723032254 71 123 0.0 0.0 0.00 0.00 0.00 85 1016.6
20240723031753 72 110 0.0 0.9 0.00 0.00 0.00 85 1016.6
20240723031253 71 83 0.9 2.6 0.00 0.00 0.00 85 1016.4
20240723030750 71 105 0.9 1.7 0.00 0.00 0.00 87 1016.5
20240723030250 71 98 0.0 0.9 0.00 0.00 0.00 88 1016.7
20240723025749 71 115 0.0 0.0 0.00 0.00 0.00 87 1016.3
20240723025248 72 136 0.0 0.0 0.00 0.00 0.00 86 1016.4
20240723024747 72 124 0.0 0.9 0.00 0.00 0.00 85 1016.5
20240723024246 72 122 0.0 0.9 0.00 0.00 0.00 85 1016.7
20240723023745 72 132 0.0 0.0 0.00 0.00 0.00 85 1016.6
20240723023245 72 121 0.0 0.0 0.00 0.00 0.00 84 1016.6
20240723022744 73 122 0.0 0.0 0.00 0.00 0.00 84 1016.6
20240723022242 73 122 0.0 0.9 0.00 0.00 0.00 84 1016.5
20240723021741 73 152 0.0 0.0 0.00 0.00 0.00 84 1016.6
20240723021239 74 141 0.0 0.0 0.00 0.00 0.00 83 1016.6
20240723020737 74 122 0.0 0.0 0.00 0.00 0.00 81 1016.6
20240723020236 74 145 0.0 0.0 0.00 0.00 0.00 81 1016.5
20240723015735 75 170 0.0 0.0 0.00 0.00 0.00 79 1016.5
20240723015234 75 64 0.0 0.9 0.00 0.00 0.00 78 1016.6
20240723014733 75 120 0.0 1.7 0.00 0.00 0.00 77 1016.7
20240723014232 75 80 0.0 0.0 0.00 0.00 0.00 78 1016.6
20240723013730 75 191 0.0 0.0 0.00 0.00 0.00 77 1016.5
20240723013229 76 183 0.0 0.0 0.00 0.00 0.00 78 1016.9
20240723012728 76 274 0.9 0.9 0.00 0.00 0.00 75 1016.6
20240723012227 76 184 0.0 0.0 0.00 0.00 0.00 75 1016.6
20240723011726 76 175 0.9 0.9 0.00 0.00 0.00 75 1016.8
20240723011224 76 295 0.0 1.7 0.00 0.00 0.00 74 1016.6
20240723010722 77 267 0.9 1.7 0.00 0.00 0.00 74 1016.6
20240723010221 77 351 0.9 1.7 0.00 0.00 0.00 73 1016.7
20240723005720 77 16 0.9 0.9 0.00 0.00 0.00 74 1016.7
20240723005218 77 250 0.9 1.7 0.00 0.00 0.00 73 1016.5
20240723004717 77 328 1.7 3.5 0.00 0.00 0.00 72 1016.4
20240723004215 77 289 2.6 2.6 0.00 0.00 0.00 72 1016.5
20240723003714 77 321 1.7 2.6 0.00 0.00 0.00 72 1016.4
20240723003213 77 230 1.7 2.6 0.00 0.00 0.00 72 1016.5
20240723002710 77 68 0.9 3.5 0.00 0.00 0.00 73 1016.3
20240723002208 78 329 1.7 3.5 0.00 0.00 0.00 70 1016.5
20240723001707 78 20 1.7 3.5 0.00 0.00 0.00 69 1016.6
20240723001206 78 320 0.9 2.6 0.00 0.00 0.00 69 1016.4
20240723000704 79 13 3.5 3.5 0.00 0.00 0.00 68 1016.4
20240723000204 79 346 0.9 5.2 0.00 0.00 0.00 68 1016.3
20240722235701 79 42 0.9 1.7 0.00 0.00 0.00 67 1016.3
20240722235201 79 347 0.9 2.6 0.00 0.00 0.00 66 1016.1
20240722234658 79 63 1.7 2.6 0.00 0.00 0.00 65 1016.1
20240722234157 79 1 2.6 3.5 0.00 0.00 0.00 66 1016.0
20240722233655 79 16 2.6 5.2 0.00 0.00 0.00 66 1016.0
20240722233154 79 256 1.7 6.1 0.00 0.00 0.00 65 1016.0
20240722232651 80 331 3.5 5.2 0.00 0.00 0.00 67 1016.1
20240722232151 80 259 1.7 3.5 0.00 0.00 0.00 67 1016.0
20240722231649 80 329 2.6 3.5 0.00 0.00 0.00 64 1016.2
20240722231149 80 344 2.6 5.2 0.00 0.00 0.00 65 1016.0
20240722230646 80 49 0.9 5.2 0.00 0.00 0.00 65 1016.1
20240722230145 80 284 1.7 3.5 0.00 0.00 0.00 66 1016.1
20240722225643 80 307 1.7 5.2 0.00 0.00 0.00 65 1016.2
20240722225142 80 276 3.5 7.0 0.00 0.00 0.00 64 1016.0
20240722224639 80 347 2.6 7.0 0.00 0.00 0.00 65 1016.0
20240722224138 80 290 3.5 5.2 0.00 0.00 0.00 62 1015.9
20240722223636 81 347 4.3 5.2 0.00 0.00 0.00 63 1016.0
20240722223135 80 45 0.9 3.5 0.00 0.00 0.00 65 1016.1
20240722222635 80 345 1.7 6.1 0.00 0.00 0.00 66 1016.3
20240722222134 80 327 2.6 5.2 0.00 0.00 0.00 62 1016.0
20240722221633 80 293 3.5 6.1 0.00 0.00 0.00 62 1016.1
20240722221132 80 254 1.7 7.0 0.00 0.00 0.00 66 1016.0
20240722220630 81 338 2.6 5.2 0.00 0.00 0.00 62 1016.1
20240722220129 81 316 4.3 6.1 0.00 0.00 0.00 60 1016.2
20240722215627 81 337 3.5 6.1 0.00 0.00 0.00 60 1016.3
20240722215125 81 320 1.7 5.2 0.00 0.00 0.00 63 1016.2
20240722214625 81 328 2.6 8.7 0.00 0.00 0.00 62 1016.1
20240722214123 81 339 3.5 5.2 0.00 0.00 0.00 64 1016.3
20240722213621 81 277 3.5 3.5 0.00 0.00 0.00 68 1016.2
20240722213120 81 286 2.6 3.5 0.00 0.00 0.00 71 1016.4
20240722212619 80 313 1.7 5.2 0.00 0.00 0.00 67 1016.5
20240722212118 81 336 2.6 3.5 0.00 0.00 0.00 67 1016.3
20240722211616 81 341 1.7 6.1 0.00 0.00 0.00 67 1016.4
20240722211115 81 349 1.7 6.1 0.00 0.00 0.00 67 1016.5
20240722210613 80 296 0.9 2.6 0.00 0.00 0.00 65 1016.5
20240722210113 80 6 2.6 7.0 0.00 0.00 0.00 69 1016.4
20240722205606 80 319 0.9 3.5 0.00 0.00 0.00 72 1016.5
20240722205104 80 307 2.6 5.2 0.00 0.00 0.00 69 1016.7
20240722204602 80 330 3.5 6.1 0.00 0.00 0.00 72 1016.7
20240722204101 80 359 3.5 7.0 0.00 0.00 0.00 72 1016.5
20240722203559 80 284 3.5 3.5 0.00 0.00 0.00 72 1016.7
20240722203059 80 278 2.6 6.1 0.00 0.00 0.00 71 1016.9
20240722202554 80 273 5.2 6.1 0.00 0.00 0.00 74 1016.8
20240722202054 80 328 5.2 7.0 0.00 0.00 0.00 69 1016.8
20240722201553 81 349 2.6 5.2 0.00 0.00 0.00 71 1016.8
20240722201051 80 313 2.6 5.2 0.00 0.00 0.00 74 1016.8
20240722200549 81 257 2.6 5.2 0.00 0.00 0.00 71 1016.9
20240722200048 81 224 3.5 7.0 0.00 0.00 0.00 72 1016.8
20240722195547 80 20 3.5 6.1 0.00 0.00 0.00 72 1016.9
20240722195047 80 307 4.3 6.1 0.00 0.00 0.00 75 1017.2
20240722194545 79 322 2.6 5.2 0.00 0.00 0.00 73 1017.0
20240722194043 79 317 4.3 6.1 0.00 0.00 0.00 71 1017.2
20240722193542 80 285 4.3 6.1 0.00 0.00 0.00 73 1017.1
20240722193041 79 329 4.3 7.0 0.00 0.00 0.00 72 1017.0
20240722192539 80 336 2.6 6.1 0.00 0.00 0.00 71 1017.2
20240722192038 80 298 1.7 5.2 0.00 0.00 0.00 71 1017.4
20240722191537 80 350 3.5 6.1 0.00 0.00 0.00 69 1017.4
20240722191036 81 332 3.5 5.2 0.00 0.00 0.00 70 1017.2
20240722190536 80 279 3.5 7.0 0.00 0.00 0.00 71 1017.2
20240722190034 79 249 3.5 5.2 0.00 0.00 0.00 73 1017.2
20240722185533 79 241 2.6 6.1 0.00 0.00 0.00 72 1017.4
20240722185029 80 257 3.5 6.1 0.00 0.00 0.00 69 1017.5
20240722184525 80 301 3.5 5.2 0.00 0.00 0.00 71 1017.5
20240722184023 80 330 2.6 3.5 0.00 0.00 0.00 71 1017.6
20240722183521 80 237 4.3 5.2 0.00 0.00 0.00 71 1017.7
20240722183019 79 291 0.9 1.7 0.00 0.00 0.00 75 1017.7
20240722182517 79 334 3.5 6.1 0.00 0.00 0.00 69 1017.5
20240722182016 80 331 1.7 3.5 0.00 0.00 0.00 77 1017.7
20240722181514 81 344 3.5 6.1 0.00 0.00 0.00 74 1017.7
20240722181014 81 277 2.6 2.6 0.00 0.00 0.00 71 1017.5
20240722180512 80 322 3.5 6.1 0.00 0.00 0.00 73 1017.5
20240722180010 80 303 2.6 3.5 0.00 0.00 0.00 72 1017.7
20240722175506 79 273 3.5 5.2 0.00 0.00 0.00 75 1017.7
20240722175003 80 261 1.7 5.2 0.00 0.00 0.00 77 1017.7
20240722174500 79 273 2.6 3.5 0.00 0.00 0.00 75 1018.0
20240722173959 79 258 3.5 5.2 0.00 0.00 0.00 76 1018.0
20240722173457 79 233 2.6 5.2 0.00 0.00 0.00 77 1017.8
20240722172956 78 254 2.6 3.5 0.00 0.00 0.00 83 1017.8
20240722172455 77 326 1.7 2.6 0.00 0.00 0.00 81 1018.0
20240722171954 77 298 3.5 5.2 0.00 0.00 0.00 81 1018.0
20240722171454 77 281 1.7 3.5 0.00 0.00 0.00 83 1018.0
20240722170953 77 338 3.5 5.2 0.00 0.00 0.00 82 1017.8
20240722170450 77 319 3.5 6.1 0.00 0.00 0.00 81 1017.7
20240722165946 78 259 2.6 5.2 0.00 0.00 0.00 83 1017.9
20240722165445 78 357 1.7 2.6 0.00 0.00 0.00 80 1018.1
20240722164943 78 340 2.6 5.2 0.00 0.00 0.00 79 1018.0
20240722164442 78 308 2.6 2.6 0.00 0.00 0.00 81 1018.2
20240722163940 79 241 0.9 5.2 0.00 0.00 0.00 80 1018.2
20240722163436 78 326 1.7 3.5 0.00 0.00 0.00 78 1018.0
20240722162935 78 12 2.6 3.5 0.00 0.00 0.00 79 1018.0
20240722162433 78 323 1.7 5.2 0.00 0.00 0.00 80 1018.0
20240722161932 78 256 3.5 3.5 0.00 0.00 0.00 80 1018.2
20240722161430 77 258 3.5 5.2 0.00 0.00 0.00 83 1018.3
20240722160929 77 290 1.7 5.2 0.00 0.00 0.00 81 1018.2
20240722160428 78 312 2.6 6.1 0.00 0.00 0.00 81 1018.2
20240722155926 78 353 2.6 3.5 0.00 0.00 0.00 82 1018.0
20240722155425 77 289 1.7 2.6 0.00 0.00 0.00 84 1018.0
20240722154923 76 359 1.7 1.7 0.00 0.00 0.00 83 1018.2
20240722154423 77 251 2.6 2.6 0.00 0.00 0.00 80 1018.3
20240722153923 76 268 2.6 3.5 0.00 0.00 0.00 82 1018.1
20240722153421 77 231 2.6 2.6 0.00 0.00 0.00 81 1018.1
20240722152920 76 187 0.0 1.7 0.00 0.00 0.00 81 1018.1
20240722152419 76 176 1.7 3.5 0.00 0.00 0.00 81 1017.9
20240722151918 75 254 2.6 3.5 0.00 0.00 0.00 83 1018.1
20240722151417 75 220 2.6 5.2 0.00 0.00 0.00 84 1018.2
20240722150915 75 314 1.7 2.6 0.00 0.00 0.00 83 1018.1
20240722150414 75 214 2.6 3.5 0.00 0.00 0.00 83 1017.8
20240722145913 74 197 2.6 2.6 0.00 0.00 0.00 84 1018.0
20240722145413 74 239 2.6 3.5 0.00 0.00 0.00 87 1018.0
20240722144911 74 238 3.5 5.2 0.00 0.00 0.00 86 1018.1
20240722144409 74 213 1.7 3.5 0.00 0.00 0.00 85 1017.9
20240722143907 74 175 0.0 2.6 0.00 0.00 0.00 87 1018.1
20240722143405 73 228 1.7 3.5 0.00 0.00 0.00 86 1018.1
20240722142903 73 221 3.5 3.5 0.00 0.00 0.00 87 1018.4
20240722142401 74 243 1.7 1.7 0.00 0.00 0.00 86 1018.3
20240722141859 73 251 3.5 3.5 0.00 0.00 0.00 87 1018.5
20240722141358 73 313 1.7 1.7 0.00 0.00 0.00 89 1018.5
20240722140858 72 243 0.9 2.6 0.00 0.00 0.00 89 1018.6
20240722140356 72 253 0.9 2.6 0.00 0.00 0.00 91 1018.5
20240722135855 72 241 3.5 3.5 0.00 0.00 0.00 89 1018.5
20240722135353 72 280 0.9 3.5 0.00 0.00 0.00 90 1018.5
20240722134853 72 251 0.9 1.7 0.00 0.00 0.00 92 1018.4
20240722134351 71 216 0.9 3.5 0.00 0.00 0.00 91 1018.5
20240722133851 71 236 0.9 1.7 0.00 0.00 0.00 92 1018.7
20240722133349 71 238 1.7 3.5 0.00 0.00 0.00 91 1018.5
20240722132848 71 238 0.9 1.7 0.00 0.00 0.00 93 1018.6
20240722132348 71 248 0.9 2.6 0.00 0.00 0.00 93 1018.6
20240722131848 71 251 3.5 3.5 0.00 0.00 0.00 91 1018.7
20240722131346 71 280 0.9 1.7 0.00 0.00 0.00 93 1018.3
20240722130845 71 306 1.7 1.7 0.00 0.00 0.00 94 1018.5
20240722130345 70 275 1.7 2.6 0.00 0.00 0.00 94 1018.5
20240722125843 70 275 1.7 2.6 0.00 0.00 0.00 94 1018.7
20240722125341 69 291 1.7 1.7 0.00 0.00 0.00 95 1018.7
20240722124839 69 235 0.9 2.6 0.00 0.00 0.00 95 1018.5
20240722124337 69 195 0.0 3.5 0.00 0.00 0.00 95 1018.6
20240722123835 69 283 0.0 2.6 0.00 0.00 0.00 96 1018.7
20240722123333 69 218 1.7 2.6 0.00 0.00 0.00 96 1018.8
20240722122832 69 245 1.7 1.7 0.00 0.00 0.00 96 1018.8
20240722122331 69 238 0.9 1.7 0.00 0.00 0.00 96 1018.6
20240722121827 69 258 2.6 3.5 0.00 0.00 0.00 96 1018.7
20240722121326 68 246 0.9 2.6 0.00 0.00 0.00 96 1018.8
20240722120825 68 261 0.9 2.6 0.00 0.00 0.00 96 1018.8
20240722120322 68 254 1.7 1.7 0.00 0.00 0.00 97 1018.6
20240722115820 68 258 0.0 0.9 0.00 0.00 0.00 97 1018.6
20240722115319 68 294 0.9 1.7 0.00 0.00 0.00 97 1018.8
20240722114817 67 205 0.0 0.9 0.00 0.00 0.00 97 1018.6
20240722114313 67 284 0.9 1.7 0.00 0.00 0.00 97 1018.8
20240722113811 67 255 0.9 1.7 0.00 0.00 0.00 97 1018.8
20240722113309 67 304 1.7 2.6 0.00 0.00 0.00 98 1018.8
20240722112808 67 285 0.0 0.9 0.00 0.00 0.00 98 1018.5
20240722112308 67 245 1.7 1.7 0.00 0.00 0.00 98 1018.7
20240722111806 67 218 0.9 1.7 0.00 0.00 0.00 98 1018.5
20240722111303 67 150 0.0 0.9 0.00 0.00 0.00 98 1018.6
20240722110801 67 196 0.9 0.9 0.00 0.00 0.00 98 1018.4
20240722110300 67 235 0.9 0.9 0.00 0.00 0.00 98 1018.5
20240722105800 67 208 0.9 1.7 0.00 0.00 0.00 98 1018.6
20240722105258 67 145 0.0 1.7 0.00 0.00 0.00 98 1018.7
20240722104758 67 173 0.0 1.7 0.00 0.00 0.00 98 1018.7
20240722104258 67 223 0.0 2.6 0.00 0.00 0.00 98 1018.5
20240722103758 67 267 2.6 2.6 0.00 0.00 0.00 99 1018.8
20240722103256 67 133 0.0 0.0 0.00 0.00 0.00 99 1018.8
20240722102755 67 180 0.0 1.7 0.00 0.00 0.00 99 1018.9
20240722102253 67 202 0.0 0.0 0.00 0.00 0.00 99 1018.9
20240722101753 67 169 0.0 0.0 0.00 0.00 0.00 98 1018.9
20240722101251 67 211 0.0 0.9 0.00 0.00 0.00 98 1018.8
20240722100750 67 163 0.0 1.7 0.00 0.00 0.00 98 1019.0
20240722100249 67 202 0.9 1.7 0.00 0.00 0.00 98 1018.9
20240722095748 67 241 1.7 1.7 0.00 0.00 0.00 98 1018.9
20240722095247 67 197 0.0 0.0 0.00 0.00 0.00 98 1018.6
20240722094746 67 250 1.7 1.7 0.00 0.00 0.00 99 1018.8
20240722094245 67 126 0.0 0.0 0.00 0.00 0.00 99 1018.7
20240722093745 67 177 0.0 0.9 0.00 0.00 0.00 98 1018.7
20240722093244 67 174 0.0 2.6 0.00 0.00 0.00 99 1018.7
20240722092743 67 173 0.0 0.9 0.00 0.00 0.00 99 1019.1
20240722092241 67 174 0.0 0.0 0.00 0.00 0.00 99 1019.0
20240722091738 66 97 0.0 0.0 0.00 0.00 0.00 99 1019.0
20240722091237 66 126 0.0 0.0 0.00 0.00 0.00 99 1019.2
20240722090735 66 135 0.0 0.0 0.00 0.00 0.00 99 1019.2
20240722090234 66 141 0.0 0.0 0.00 0.00 0.00 98 1019.3
20240722085733 66 195 0.0 0.0 0.00 0.00 0.00 98 1019.2
20240722085232 66 195 0.0 0.9 0.00 0.00 0.00 98 1019.3
20240722084730 66 151 0.0 0.0 0.00 0.00 0.00 98 1019.5
20240722084230 66 155 0.0 0.9 0.00 0.00 0.00 97 1019.5
20240722083727 66 160 0.0 0.0 0.00 0.00 0.00 97 1019.6
20240722083226 67 144 0.0 0.0 0.00 0.00 0.00 97 1019.5
20240722082721 66 163 0.0 2.6 0.00 0.00 0.00 97 1019.4
20240722082221 67 144 0.0 0.0 0.00 0.00 0.00 97 1019.4
20240722081719 67 158 0.0 0.9 0.00 0.00 0.00 97 1019.5
20240722081218 67 192 0.0 0.9 0.00 0.00 0.00 97 1019.3
20240722080719 67 157 0.0 0.9 0.00 0.00 0.00 97 1019.3
20240722080217 67 154 0.0 0.9 0.00 0.00 0.00 97 1019.6
20240722075716 67 150 0.0 0.0 0.00 0.00 0.00 97 1019.5
20240722075216 67 220 0.9 1.7 0.00 0.00 0.00 97 1019.4
20240722074714 67 171 0.0 0.9 0.00 0.00 0.00 97 1019.5
20240722074212 67 130 0.9 0.9 0.00 0.00 0.00 98 1019.5
20240722073709 67 150 0.0 0.9 0.00 0.00 0.00 98 1019.4
20240722073207 67 156 0.0 0.9 0.00 0.00 0.00 98 1019.5
20240722072706 67 153 0.0 0.9 0.00 0.00 0.00 98 1019.6
20240722072203 67 156 0.0 0.9 0.00 0.00 0.00 99 1019.5
20240722071701 67 173 0.0 1.7 0.00 0.00 0.00 99 1019.6
20240722071159 67 157 0.0 1.7 0.00 0.00 0.00 99 1019.7
20240722070656 67 191 0.9 1.7 0.00 0.00 0.00 99 1019.9
20240722070154 67 148 0.0 0.0 0.00 0.00 0.00 99 1019.7
20240722065653 67 165 0.0 0.0 0.00 0.00 0.00 99 1019.9
20240722065153 67 150 0.0 0.0 0.00 0.00 0.00 99 1019.9
20240722064652 67 150 0.0 0.9 0.00 0.00 0.00 99 1020.0